K0WOI Weather Reports


time (UTC)temp
C
wind
direction
speed
KPH
gust
KPH
rain 1hr
cm
rain 24hr
cm
rain mn
cm
humidity
%
barometer
mb
20260504220050 25 326 3.2 3.2 0.00 0.00 0.00 28 1000.7
20260504215546 25 282 4.8 9.7 0.00 0.00 0.00 30 1000.6
20260504215044 26 296 11.3 12.9 0.00 0.00 0.00 26 1000.5
20260504214539 26 286 4.8 4.8 0.00 0.00 0.00 27 1000.2
20260504214036 26 326 4.8 8.0 0.00 0.00 0.00 28 1000.2
20260504213533 26 316 3.2 3.2 0.00 0.00 0.00 28 1000.2
20260504213030 26 302 3.2 8.0 0.00 0.00 0.00 29 1000.2
20260504212526 26 311 12.9 16.1 0.00 0.00 0.00 28 1000.1
20260504212023 26 307 1.6 3.2 0.00 0.00 0.00 31 1000.2
20260504211520 26 289 8.0 9.7 0.00 0.00 0.00 28 999.8
20260504211017 26 318 6.4 9.7 0.00 0.00 0.00 30 1000.2
20260504210514 26 289 6.4 8.0 0.00 0.00 0.00 29 999.9
20260504210011 26 296 3.2 3.2 0.00 0.00 0.00 34 999.9
20260504205509 27 281 3.2 4.8 0.00 0.00 0.00 36 999.8
20260504205006 26 286 3.2 4.8 0.00 0.00 0.00 34 999.8
20260504204504 26 316 16.1 22.5 0.00 0.00 0.00 32 999.7
20260504204003 27 292 6.4 9.7 0.00 0.00 0.00 31 999.7
20260504203501 27 290 4.8 4.8 0.00 0.00 0.00 37 999.7
20260504202956 26 335 4.8 9.7 0.00 0.00 0.00 31 999.7
20260504202453 27 255 8.0 11.3 0.00 0.00 0.00 33 999.7
20260504201950 26 312 8.0 11.3 0.00 0.00 0.00 33 999.7
20260504201447 27 262 4.8 8.0 0.00 0.00 0.00 32 999.7
20260504200945 27 278 3.2 4.8 0.00 0.00 0.00 37 999.6
20260504200441 27 326 9.7 12.9 0.00 0.00 0.00 31 999.6
20260504195938 26 319 3.2 8.0 0.00 0.00 0.00 33 999.5
20260504195434 25 334 8.0 11.3 0.00 0.00 0.00 31 999.6
20260504194931 25 330 4.8 4.8 0.00 0.00 0.00 31 999.5
20260504194427 26 264 4.8 4.8 0.00 0.00 0.00 31 999.3
20260504193923 26 304 3.2 3.2 0.00 0.00 0.00 30 999.5
20260504193420 27 316 11.3 16.1 0.00 0.00 0.00 28 999.6
20260504192919 27 310 6.4 14.5 0.00 0.00 0.00 30 999.3
20260504192415 27 329 4.8 4.8 0.00 0.00 0.00 28 999.4
20260504191915 27 218 8.0 11.3 0.00 0.00 0.00 27 999.4
20260504191412 27 322 4.8 8.0 0.00 0.00 0.00 28 999.4
20260504190907 27 220 6.4 9.7 0.00 0.00 0.00 26 999.2
20260504190403 27 291 4.8 4.8 0.00 0.00 0.00 29 999.5
20260504185901 27 335 12.9 17.7 0.00 0.00 0.00 27 999.6
20260504185357 27 309 3.2 4.8 0.00 0.00 0.00 28 999.6
20260504184853 27 257 4.8 8.0 0.00 0.00 0.00 27 999.8
20260504184349 27 277 6.4 9.7 0.00 0.00 0.00 28 999.8
20260504183845 26 271 3.2 3.2 0.00 0.00 0.00 27 999.7
20260504183343 26 267 8.0 9.7 0.00 0.00 0.00 27 999.7
20260504182840 26 311 1.6 1.6 0.00 0.00 0.00 29 999.8
20260504182337 26 207 6.4 11.3 0.00 0.00 0.00 30 999.6
20260504181834 26 228 16.1 20.9 0.00 0.00 0.00 29 999.5
20260504181332 26 316 8.0 9.7 0.00 0.00 0.00 31 999.8
20260504180830 26 324 14.5 20.9 0.00 0.00 0.00 28 999.7
20260504180328 26 256 4.8 8.0 0.00 0.00 0.00 32 999.6
20260504175826 26 350 4.8 9.7 0.00 0.00 0.00 32 1000.0
20260504175323 26 267 4.8 8.0 0.00 0.00 0.00 33 999.6
20260504174821 26 236 8.0 11.3 0.00 0.00 0.00 32 999.8
20260504174318 26 285 4.8 4.8 0.00 0.00 0.00 33 999.9
20260504173815 26 255 6.4 9.7 0.00 0.00 0.00 31 999.8
20260504173311 26 229 11.3 14.5 0.00 0.00 0.00 31 999.9
20260504172809 26 264 4.8 8.0 0.00 0.00 0.00 34 999.9
20260504172305 26 245 4.8 8.0 0.00 0.00 0.00 32 999.8
20260504171801 25 217 9.7 12.9 0.00 0.00 0.00 32 1000.0
20260504171258 25 243 4.8 9.7 0.00 0.00 0.00 32 999.9
20260504170755 26 286 8.0 9.7 0.00 0.00 0.00 30 1000.1
20260504170252 26 270 8.0 11.3 0.00 0.00 0.00 33 999.9
20260504160211 25 215 11.3 17.7 0.00 0.00 0.00 37 999.9
20260504151139 22 245 4.8 4.8 0.00 0.00 0.00 45 1000.5
20260504150636 21 238 9.7 11.3 0.00 0.00 0.00 45 1000.5
20260504150133 21 273 1.6 1.6 0.00 0.00 0.00 48 1000.3
20260504141102 17 287 3.2 4.8 0.00 0.00 0.00 57 1001.0
20260504140558 16 271 1.6 1.6 0.00 0.00 0.00 58 1000.9
20260504130522 11 322 0.0 0.0 0.00 0.00 0.00 72 1001.5
20260504110410 9 320 0.0 1.6 0.00 0.00 0.00 76 1001.9
20260504100326 8 319 1.6 1.6 0.00 0.00 0.00 84 1002.4
20260504081720 9 319 0.0 0.0 0.00 0.00 0.00 77 1003.3
20260504081216 9 319 0.0 0.0 0.00 0.00 0.00 77 1003.5
20260504080713 9 319 0.0 1.6 0.00 0.00 0.00 74 1003.5
20260504080209 8 319 1.6 1.6 0.00 0.00 0.00 77 1003.7
20260504070137 9 318 0.0 0.0 0.00 0.00 0.00 80 1004.7
20260504050526 9 317 0.0 0.0 0.00 0.00 0.00 81 1005.8
20260504050023 9 317 0.0 0.0 0.00 0.00 0.00 81 1005.8
20260504045519 9 317 0.0 0.0 0.00 0.00 0.00 78 1005.9
20260504045015 9 317 0.0 0.0 0.00 0.00 0.00 77 1006.1
20260504044513 9 317 0.0 0.0 0.00 0.00 0.00 75 1005.9
20260504044009 10 317 0.0 0.0 0.00 0.00 0.00 78 1006.2
20260504043506 10 317 0.0 0.0 0.00 0.00 0.00 78 1005.9
20260504043004 10 317 0.0 0.0 0.00 0.00 0.00 77 1006.0
20260504042501 10 317 0.0 0.0 0.00 0.00 0.00 78 1005.9
20260504041957 10 317 0.0 0.0 0.00 0.00 0.00 76 1006.1
20260504041453 10 317 0.0 0.0 0.00 0.00 0.00 75 1006.1
20260504040949 10 317 0.0 0.0 0.00 0.00 0.00 74 1006.1
20260504040447 11 317 0.0 0.0 0.00 0.00 0.00 71 1006.1
20260504035943 11 317 0.0 0.0 0.00 0.00 0.00 70 1006.1
20260504035441 11 317 0.0 0.0 0.00 0.00 0.00 69 1006.4
20260504034937 12 317 0.0 0.0 0.00 0.00 0.00 67 1006.4
20260504034435 12 317 0.0 0.0 0.00 0.00 0.00 64 1006.5
20260504033932 12 317 0.0 0.0 0.00 0.00 0.00 63 1006.5
20260504033429 13 317 0.0 0.0 0.00 0.00 0.00 61 1006.9
20260504032926 14 317 0.0 0.0 0.00 0.00 0.00 54 1006.7
20260504032423 15 317 0.0 0.0 0.00 0.00 0.00 51 1006.9
20260504031920 15 317 0.0 0.0 0.00 0.00 0.00 43 1006.9
20260504031417 15 317 0.0 0.0 0.00 0.00 0.00 43 1006.8
20260504030914 15 317 0.0 0.0 0.00 0.00 0.00 44 1006.9
20260504030411 15 317 0.0 0.0 0.00 0.00 0.00 44 1006.8
20260504025906 14 317 0.0 0.0 0.00 0.00 0.00 44 1006.9
20260504025404 15 317 0.0 0.0 0.00 0.00 0.00 45 1007.1
20260504024900 15 316 0.0 0.0 0.00 0.00 0.00 49 1007.1
20260504024356 15 316 0.0 0.0 0.00 0.00 0.00 43 1006.9
20260504023854 16 316 0.0 0.0 0.00 0.00 0.00 41 1006.8
20260504023350 16 316 0.0 0.0 0.00 0.00 0.00 39 1007.0
20260504022846 16 316 0.0 0.0 0.00 0.00 0.00 39 1006.8
20260504022343 16 316 0.0 0.0 0.00 0.00 0.00 38 1007.1
20260504021839 17 316 0.0 1.6 0.00 0.00 0.00 37 1006.9
20260504021337 17 315 0.0 1.6 0.00 0.00 0.00 37 1007.0
20260504020834 17 315 0.0 0.0 0.00 0.00 0.00 36 1007.0
20260504020331 17 315 0.0 0.0 0.00 0.00 0.00 35 1006.8
20260504015827 17 314 0.0 1.6 0.00 0.00 0.00 35 1006.7
20260504015323 17 313 0.0 0.0 0.00 0.00 0.00 35 1006.8
20260504014819 18 312 1.6 1.6 0.00 0.00 0.00 34 1006.9
20260504014315 18 310 0.0 0.0 0.00 0.00 0.00 34 1006.7
20260504013814 18 307 0.0 1.6 0.00 0.00 0.00 34 1006.8
20260504013311 18 303 0.0 0.0 0.00 0.00 0.00 33 1006.8
20260504012807 19 297 1.6 1.6 0.00 0.00 0.00 32 1006.7
20260504012305 20 302 0.0 1.6 0.00 0.00 0.00 31 1006.8
20260504011803 20 303 0.0 0.0 0.00 0.00 0.00 30 1006.6
20260504011259 20 295 1.6 3.2 0.00 0.00 0.00 29 1006.7
20260504010754 20 297 1.6 1.6 0.00 0.00 0.00 29 1006.6
20260504010250 20 274 1.6 1.6 0.00 0.00 0.00 28 1006.8
20260504005747 21 286 3.2 3.2 0.00 0.00 0.00 28 1006.7
20260504005244 21 285 3.2 3.2 0.00 0.00 0.00 27 1006.7
20260504004742 21 311 1.6 3.2 0.00 0.00 0.00 27 1006.7
20260504004239 21 311 1.6 1.6 0.00 0.00 0.00 27 1006.8
20260504003735 21 311 1.6 1.6 0.00 0.00 0.00 25 1006.7
20260504003232 21 311 0.0 1.6 0.00 0.00 0.00 25 1006.9
20260504002729 22 307 3.2 3.2 0.00 0.00 0.00 25 1006.7
20260504002225 22 300 3.2 3.2 0.00 0.00 0.00 25 1006.8
20260504001723 22 306 1.6 1.6 0.00 0.00 0.00 25 1006.8
20260504001220 22 210 11.3 12.9 0.00 0.00 0.00 23 1006.7
20260504000717 22 285 3.2 3.2 0.00 0.00 0.00 23 1006.8
20260504000214 22 267 3.2 3.2 0.00 0.00 0.00 24 1006.8
20260503235712 22 263 4.8 4.8 0.00 0.00 0.00 25 1006.8
20260503235209 23 297 3.2 3.2 0.00 0.00 0.00 25 1006.8
20260503234706 23 313 0.0 1.6 0.00 0.00 0.00 23 1006.6
20260503234205 23 310 4.8 8.0 0.00 0.00 0.00 25 1006.8
20260503233701 23 309 1.6 1.6 0.00 0.00 0.00 24 1007.0
20260503233157 23 237 8.0 9.7 0.00 0.00 0.00 24 1006.7
20260503232654 23 311 3.2 3.2 0.00 0.00 0.00 23 1007.0
20260503232152 23 296 3.2 3.2 0.00 0.00 0.00 26 1006.8
20260503231650 23 321 3.2 3.2 0.00 0.00 0.00 23 1007.0
20260503231145 23 314 1.6 3.2 0.00 0.00 0.00 27 1007.0
20260503230642 23 306 1.6 1.6 0.00 0.00 0.00 25 1006.9
20260503230140 23 279 1.6 3.2 0.00 0.00 0.00 23 1007.0
20260503225637 23 290 1.6 1.6 0.00 0.00 0.00 22 1007.0
20260503225136 23 322 1.6 3.2 0.00 0.00 0.00 21 1007.2
20260503224634 23 305 4.8 4.8 0.00 0.00 0.00 21 1007.0
20260503224132 23 302 3.2 4.8 0.00 0.00 0.00 24 1006.9
20260503223630 24 290 8.0 9.7 0.00 0.00 0.00 22 1007.0
20260503223126 25 318 4.8 4.8 0.00 0.00 0.00 21 1007.2
20260503222624 23 318 1.6 1.6 0.00 0.00 0.00 25 1007.1
20260503222121 23 339 3.2 3.2 0.00 0.00 0.00 24 1007.0
20260503221619 23 337 3.2 4.8 0.00 0.00 0.00 24 1007.2
20260503221116 23 236 8.0 9.7 0.00 0.00 0.00 23 1007.3
20260503220613 23 310 3.2 3.2 0.00 0.00 0.00 27 1007.1